User: anonymous   Login
Location: Palomar Mountain Lodge
(33.3110°N, 116.8495°W)
Time: 00:23:22
(UTC-07:00)
Language:

Envisat - Orbit

View from above orbital plane
View from above orbital plane
View from above satellite
View from above satellite

Ground track
Ground track

The orbit is defined by the following mean orbital elements,

1 27386U          26069.85399071 +.00000000 +00000-0 +70889-4 0 00000
2 27386  98.3729  23.4236 0001318  82.7249 288.7667 14.39037467    09
Epoch (UTC): 10 March 2026 20:29:44
Eccentricity: 0.0001318
inclination: 98.3729°
perigee height: 761 km
apogee height: 763 km
right ascension of ascending node: 23.4236°
argument of perigee: 82.7249°
revolutions per day: 14.39037467
mean anomaly at epoch: 288.7667°

The dashed part of the orbit path shows where the satellite is in the earth's shadow,  

DLR